Location: Berg
(47.2344°N, 9.5296°E)
Time: 22:14:51
(UTC+00:00)

XW-2C - Visible Passes

Search period start: 01 December 2021 00:00
Search period end: 11 December 2021 00:00
Orbit: 505 x 523 km, 97.5° (Epoch: 01 December)

Date Brightness Start Highest point End Pass type
(mag) Time Alt. Az. Time Alt. Az. Time Alt. Az.
01 Dec ? 04:33:16 10° NE 04:36:05 19° E 04:38:53 10° SE visible
01 Dec ? 06:06:42 10° N 06:10:14 36° WNW 06:13:44 10° SW visible
01 Dec ? 16:49:17 10° S 16:52:54 48° W 16:56:34 10° NNW visible
02 Dec ? 04:18:42 10° ENE 04:20:38 13° E 04:22:33 10° ESE visible
02 Dec ? 05:51:15 10° N 05:54:59 53° WNW 05:58:42 10° SSW visible
02 Dec ? 16:33:50 10° S 16:37:33 75° WSW 16:41:21 10° NNW visible
03 Dec ? 05:35:52 10° N 05:39:42 81° WNW 05:43:30 10° SSW visible
03 Dec ? 16:18:32 10° SSE 16:22:15 72° ENE 16:26:01 10° N visible
04 Dec ? 05:20:34 10° NNE 05:24:22 67° E 05:28:10 10° S visible
04 Dec ? 16:03:22 10° SE 16:06:58 47° ENE 16:10:37 10° N visible
04 Dec ? 17:39:08 10° SW 17:41:16 15° W 17:43:25 10° NW visible
05 Dec ? 05:05:21 10° NNE 05:09:01 43° E 05:12:40 10° S visible
05 Dec ? 17:22:55 10° SW 17:25:49 21° W 17:28:44 10° NW visible
06 Dec ? 04:50:15 10° NNE 04:53:38 29° E 04:56:59 10° SSE visible
06 Dec ? 17:07:02 10° SSW 17:10:23 30° W 17:13:46 10° NNW visible
07 Dec ? 04:35:17 10° NE 04:38:12 20° E 04:41:05 10° SE visible
07 Dec ? 06:08:49 10° N 06:12:19 34° WNW 06:15:47 10° SW visible
07 Dec ? 16:51:23 10° S 16:54:58 46° W 16:58:39 10° NNW visible
08 Dec ? 04:20:38 10° ENE 04:22:44 14° E 04:24:48 10° ESE visible
08 Dec ? 05:53:20 10° N 05:57:03 50° WNW 06:00:44 10° SSW visible
08 Dec ? 16:35:53 10° S 16:39:37 71° WSW 16:43:24 10° NNW visible
09 Dec ? 05:37:55 10° N 05:41:44 77° WNW 05:45:33 10° SSW visible
09 Dec ? 16:20:32 10° SSE 16:24:17 76° ENE 16:28:04 10° N visible
10 Dec ? 05:22:34 10° NNE 05:26:25 70° ESE 05:30:12 10° S visible
10 Dec ? 16:05:20 10° SSE 16:08:58 50° ENE 16:12:40 10° N visible
10 Dec ? 17:41:16 10° WSW 17:43:18 14° W 17:45:21 10° WNW visible
